Forside
METAR-TAF:

METAR-TAF

Lufthavne :

Creston, Iowa, USA

Breddekreds: 41-01N, længdekreds: 094-22W, højde: 394 m

Aktuelle vejr

Denne rapport blev lavet for 20 minutter siden, kl. 00:15 UTC
Vind 6 kt fra sydsydøst
Temperatur -1°C
Fugtighed 54%
Tryk 1027 hPa
Sigt: 16.1 km
skyfri

METAR: KCSQ 150015Z AUTO 16006KT 10SM CLR M01/M09 A3032 RMK AO2

Tid: 18:35 (00:35 UTC)


TAF: fraværende

Vejrobservationer og prognoser fra mere end 4000 lufthavne (METAR og TAF).

De gule og røde prikker repræsenterer de meteorologiske stationer.

Flyt musen over at se navnet på stationen.

Så klik over at se vejr observationer og prognoser.

At skifte det kort: Klik på de grønne knapper med et sort kors for at zoome ind; på den grønne knap med en bindestreg for at zoome ud; eller på de grønne pile for tilstødende kort.


METAR-TAF: